Location: Joplin, MO
(37.0842°N, 94.5133°W)
Time: 19:52:41
(UTC+02:00)

Courier 1B Rocket - Pass Details

Date: 01 April 2023
Orbit: 920 x 1202 km, 28.2° (Epoch: 08 June)

Event Time Altitude Azimuth Distance (km) Brightness Sun altitude
Rises 02:30:13 0° 245° (WSW) 4,037 9.4 1.0°
Reaches altitude 10° 02:33:17 10° 238° (WSW) 3,044 8.6 0.4°
Maximum altitude 02:40:08 39° 173° (S) 1,597 6.1 -0.9°
Drops below altitude 10° 02:46:34 10° 107° (ESE) 2,861 6.8 -2.2°
Enters shadow 02:48:32 - 101° (E) 3,490 7.2 -2.6°
Sets 02:49:22 0° 99° (E) 3,771 - -2.8°
